Regional Weather Roundup
Issued by NWS

Home | Current Version | Previous Version | Text Only | Print | Product List | Glossary On
Versions: 1 2 3 4 5 6 7 8 9 10 11 12 13 14 15 16 17 18 19 20 21 22 23 24 25 26 27 28 29 30 31 32 33 34 35 36 37 38 39 40 41 42 43 44 45 46 47 48 49 50
000
ASUS46 KSEW 220610
RWRWA

WASHINGTON REGIONAL WEATHER ROUNDUP
NATIONAL WEATHER SERVICE SEATTLE WA
1000 PM PST TUE FEB 21 2017

NOTE:"FAIR" INDICATES FEW OR NO CLOUDS BELOW 12,000 FEET WITH NO
SIGNIFICANT WEATHER AND/OR OBSTRUCTIONS TO VISIBILITY.

WAZ507-509-555>559-220700-
SEATTLE, TACOMA, EVERETT, AND VICINITY

CITY           SKY/WX    TMP DP  RH WIND       PRES   REMARKS
EVERETT        LGT RAIN  38  36  92 NW6       30.12R FOG
6HR MIN TEMP:  38; 6HR MAX TEMP:  46; 6HR PCP:  0.10;

BOEING FIELD   CLOUDY    41  39  93 E7        30.13R
6HR MIN TEMP:  41; 6HR MAX TEMP:  48; 6HR PCP:  0.15;

RENTON         CLOUDY    41  41 100 NW5       30.13R
6HR MIN TEMP:  40; 6HR MAX TEMP:  48; 6HR PCP:  0.15;

SEATAC AIRPORT CLOUDY    41  36  82 E12       30.12R
6HR MIN TEMP:  41; 6HR MAX TEMP:  46; 6HR PCP: TRACE;

JBLM-MCCHORD   MOCLDY    37  37 100 S9        30.12R
6HR MIN TEMP:  36; 6HR MAX TEMP:  45;

PUYALLUP         N/A     39  37  93 SE8       30.12R
BREMERTON      CLOUDY    37  37 100 CALM      30.14R
6HR MIN TEMP:  36; 6HR MAX TEMP:  45;

JBLM-FT LEWIS  MOCLDY    37  37 100 SE7       30.12R
6HR MIN TEMP:  36; 6HR MAX TEMP:  46;

TACOMA NARROWS MOCLDY    40  35  83 S6        30.12R
6HR MIN TEMP:  39; 6HR MAX TEMP:  45; 6HR PCP:  0.01;

$$

WAZ001-503-506-510-514-515-220700-
NORTH INTERIOR

CITY           SKY/WX    TMP DP  RH WIND       PRES   REMARKS
BELLINGHAM     PTCLDY    36  34  92 CALM      30.09R
6HR MIN TEMP:  36; 6HR MAX TEMP:  45;

FRIDAY HARBOR  CLEAR     41  33  73 SW6       30.11R
6HR MIN TEMP:  39; 6HR MAX TEMP:  49;

EASTSOUND      CLEAR     39  32  75 SW6       30.08R
PORT ANGELES   PTCLDY    38  32  79 SW9       30.12R
6HR MIN TEMP:  37; 6HR MAX TEMP:  45;

EDIZ HOOK      FAIR      42  32  70 W9        30.13R
6HR MIN TEMP:  41; 6HR MAX TEMP:  47;

PORT TOWNSEND  CLOUDY    41  36  81 CALM      30.12R
NAS WHIDBEY    PTCLDY    45  34  65 W18       30.15R
6HR MIN TEMP:  45; 6HR MAX TEMP:  50;

ARLINGTON      MOCLDY    39  30  70 E3        30.14S
6HR MIN TEMP:  37; 6HR MAX TEMP:  48;

BURLINGTON     PTCLDY    39  32  75 CALM      30.11R
$$

WAZ020-022-039-040-504-511-512-220700-
SOUTHWEST INTERIOR

CITY           SKY/WX    TMP DP  RH WIND       PRES   REMARKS
SHELTON        MOCLDY    39  32  76 SW13      30.10R
6HR MIN TEMP:  39; 6HR MAX TEMP:  51;

OLYMPIA        MOCLDY    40  34  79 SW8       30.14R
6HR MIN TEMP:  39; 6HR MAX TEMP:  46;

CHEHALIS       CLOUDY    37  37 100 S5        30.16R
KELSO          PTCLDY    38  36  92 CALM      30.19R
6HR MIN TEMP:  36; 6HR MAX TEMP:  48;

VANCOUVER      CLOUDY    39  39 100 CALM      30.18R
6HR MIN TEMP:  37; 6HR MAX TEMP:  46;

SCAPPOOSE, OR  PTCLDY    34  34 100 W6        30.18R
6HR MIN TEMP:  34; 6HR MAX TEMP:  49;

PORTLAND, OR   MOCLDY    41  39  93 CALM      30.19R
6HR MIN TEMP:  39; 6HR MAX TEMP:  45;

$$

WAZ021-516-517-220700-
WASHINGTON COAST

CITY           SKY/WX    TMP DP  RH WIND       PRES   REMARKS
FORKS          MOCLDY    36  35  96 CALM      30.14R
6HR MIN TEMP:  34; 6HR MAX TEMP:  47; 6HR PCP:  0.04;

HOQUIAM        CLEAR     42  36  79 W7        30.16R
6HR MIN TEMP:  39; 6HR MAX TEMP:  47;

ASTORIA, OR    PTCLDY    39  34  82 CALM      30.18R
6HR MIN TEMP:  38; 6HR MAX TEMP:  47; 6HR PCP: TRACE;

$$

WAZ019-023-024-040-567>569-220700-
CASCADE MOUNTAINS AND COLUMBIA GORGE

CITY           SKY/WX    TMP DP  RH WIND       PRES   REMARKS
STAMPEDE PASS  NOT AVBL
TROUTDALE, OR  CLOUDY    40  39  97 CALM      30.19R
6HR MIN TEMP:  40; 6HR MAX TEMP:  46;

THE DALLES, OR CLOUDY    43  36  76 W10       30.11R
6HR MIN TEMP:  43; 6HR MAX TEMP:  47;

$$

WAZ026-027-041>044-520-521-220700-
EAST SLOPES

CITY           SKY/WX    TMP DP  RH WIND       PRES   REMARKS
OMAK           PTCLDY    31  28  89 CALM      29.98R
6HR MIN TEMP:  31; 6HR MAX TEMP:  40;

WENATCHEE      CLOUDY    37  27  67 N6        30.00R
6HR MIN TEMP:  35; 6HR MAX TEMP:  39;

ELLENSBURG     CLOUDY    35  26  69 NW8       30.01R
6HR MIN TEMP:  34; 6HR MAX TEMP:  43;

YAKIMA         CLOUDY    33  31  92 CALM      30.04R FOG
6HR MIN TEMP:  33; 6HR MAX TEMP:  42;

SUNNYSIDE ARPT FOG       33  32  99 CALM      30.05R VSB 1/4
6HR MIN TEMP:  32; 6HR MAX TEMP:  39;

$$

WAZ028-034-035-220700-
COLUMBIA BASIN

CITY           SKY/WX    TMP DP  RH WIND       PRES   REMARKS
EPHRATA        FOG       33  30  88 N3        29.99R VSB 1/4
6HR MIN TEMP:  33; 6HR MAX TEMP:  36;

MOSES LAKE     FOG       32  30  92 NE5       30.00R VSB 1/4
6HR MIN TEMP:  32; 6HR MAX TEMP:  37;

PASCO          CLOUDY    37  35  92 N6        30.05R
6HR MIN TEMP:  37; 6HR MAX TEMP:  43;

HERMISTON, OR  CLOUDY    42  36  79 SW7       30.05R
6HR MIN TEMP:  41; 6HR MAX TEMP:  44;

$$

WAZ036>038-220700-
NORTHEAST WASHINGTON

CITY           SKY/WX    TMP DP  RH WIND       PRES   REMARKS
SPOKANE GEIGER FRZ DRZL  32  32 100 SW8       29.95R FOG
6HR MIN TEMP:  32; 6HR MAX TEMP:  34; 6HR PCP:  0.02;

SPOKANE FELTS  CLOUDY    35  33  92 S5        29.97R
6HR MIN TEMP:  34; 6HR MAX TEMP:  37; 6HR PCP:  0.05;

FAIRCHILD AFB  CLOUDY    32  32 100 SW8       29.94R FOG
6HR MIN TEMP:  32; 6HR MAX TEMP:  33; 6HR PCP:  0.02;

COEURDALENE,ID CLOUDY    33  32  96 SW8       29.96R FOG
6HR MIN TEMP:  33; 6HR MAX TEMP:  34; 6HR PCP:  0.05;

DEER PARK      CLOUDY    33  31  92 S7        29.95R
6HR MIN TEMP:  33; 6HR MAX TEMP:  35;

$$

WAZ029>033-220700-
SOUTHEAST WASHINGTON

CITY           SKY/WX    TMP DP  RH WIND       PRES   REMARKS
PULLMAN        CLOUDY    34  33  96 W9        29.98R
6HR MIN TEMP:  31; 6HR MAX TEMP:  34; 6HR PCP:  0.05;

LEWISTON, ID   CLOUDY    37  34  89 E3        30.00R
6HR MIN TEMP:  37; 6HR MAX TEMP:  41; 6HR PCP:  0.11;

WALLA WALLA    CLOUDY    41  36  82 S10       30.04R
6HR MIN TEMP:  36; 6HR MAX TEMP:  41; 6HR PCP:  0.04;

PENDLETON, OR  CLOUDY    40  37  89 W8        30.04R
6HR MIN TEMP:  36; 6HR MAX TEMP:  42; 6HR PCP:  0.04;

$$



USA.gov is the U.S. government's official web portal to all federal, state and local government web resources and services.